Weather History for Goodland, KS

Change the Weather History Date:

Saturday, January 19, 2013

  Actual Average Record
Temperature  
Mean Temperature 39 °F 30 °F  
Max Temperature 57 °F 42 °F 72 °F (1986)
Min Temperature 20 °F 17 °F -17 °F (1962)
Degree Days  
Heating Degree Days 26 35  
Month to date heating degree days 697 667  
Since 1 July heating degree days 2965 3074  
Cooling Degree Days 0 0  
Month to date cooling degree days 0 0  
Year to date cooling degree days 0 0  
Moisture  
Dew Point 13 °F    
Average Humidity 43    
Maximum Humidity 68    
Minimum Humidity 17    
Precipitation  
Precipitation 0.00 in 0.01 in 1.02 in (1988)
Month to date precipitation 0.02 0.22  
Year to date precipitation 0.02 0.22  
Snow  
Snow 0.00 in 0.20 in - ()
Month to date snowfall 0.4 3.4  
Since 1 July snowfall 10.4 16.1  
Snow Depth 0.00 in    
Sea Level Pressure  
Sea Level Pressure 30.19 in    
Wind  
Wind Speed 10 mph (WNW)    
Max Wind Speed 22 mph    
Max Gust Speed 28 mph    
Visibility 10 miles    
Events      
T = Trace of Precipitation, MM = Missing Value Source: NWS Daily Summary

Daily Weather History Graph

Daily Weather History Graph

Search for Another Location

Airport:

Trip Planner

Search our weather history database for the weather conditions in past years. The results will help you decide how hot, cold, wet, or windy it might be!

Date:

Astronomy

Jan. 19, 2013 Rise Set
Actual Time 7:03 AM MST 4:52 PM MST
Civil Twilight 6:33 AM MST 5:21 PM MST
Nautical Twilight 6:01 AM MST 5:54 PM MST
Astronomical Twilight 5:29 AM MST 6:26 PM MST
Moon 11:19 AM MST (1/19) 12:39 AM MST (1/19)
Length of Visible Light 10h 47m
Length of Day
9h 49m
First Quarter, 58% of the Moon is Illuminated
Jan 19
First Quarter
Jan 26
Full
Feb 3
Last Quarter
Feb 10
New
Feb 17
First Quarter

Hourly Weather History & Observations

Time (MST) Temp. Windchill Dew Point Humidity Pressure Visibility Wind Dir Wind Speed Gust Speed Precip Events Conditions
12:53 AM 30.9 °F 21.7 °F 10.0 °F 42% 30.01 in 10.0 mi West 11.5 mph - N/A   Clear
1:53 AM 28.9 °F 20.4 °F 10.9 °F 47% 30.04 in 10.0 mi West 9.2 mph - N/A   Clear
2:53 AM 32.0 °F 23.6 °F 10.9 °F 42% 30.03 in 10.0 mi West 10.4 mph - N/A   Clear
3:53 AM 30.9 °F 20.7 °F 10.9 °F 43% 30.05 in 10.0 mi West 13.8 mph - N/A   Clear
4:53 AM 32.0 °F 22.5 °F 12.0 °F 44% 30.09 in 10.0 mi WNW 12.7 mph - N/A   Clear
5:53 AM 28.9 °F 19.8 °F 12.9 °F 51% 30.15 in 10.0 mi WNW 10.4 mph - N/A   Clear
6:53 AM 25.0 °F 14.8 °F 12.9 °F 60% 30.18 in 10.0 mi WNW 10.4 mph - N/A   Clear
7:53 AM 34.0 °F 25.0 °F 14.0 °F 44% 30.19 in 10.0 mi NW 12.7 mph - N/A   Clear
8:53 AM 42.1 °F 34.2 °F 15.1 °F 34% 30.22 in 10.0 mi NW 16.1 mph - N/A   Clear
9:53 AM 48.9 °F - 14.0 °F 25% 30.25 in 10.0 mi NNW 17.3 mph - N/A   Clear
10:53 AM 54.0 °F - 12.9 °F 20% 30.24 in 10.0 mi North 15.0 mph - N/A   Clear
11:53 AM 55.9 °F - 12.0 °F 18% 30.21 in 10.0 mi North 18.4 mph 27.6 mph N/A   Clear
12:53 PM 55.9 °F - 12.0 °F 18% 30.19 in 10.0 mi North 13.8 mph 24.2 mph N/A   Clear
1:53 PM 57.0 °F - 12.0 °F 17% 30.20 in 10.0 mi North 11.5 mph 19.6 mph N/A   Clear
2:53 PM 55.9 °F - 12.0 °F 18% 30.19 in 10.0 mi NNW 8.1 mph - N/A   Clear
3:53 PM 55.0 °F - 12.9 °F 19% 30.20 in 10.0 mi North 4.6 mph - N/A   Clear
4:53 PM 44.1 °F 42.5 °F 12.9 °F 28% 30.24 in 10.0 mi East 3.5 mph - N/A   Clear
5:53 PM 32.0 °F 27.5 °F 12.9 °F 45% 30.28 in 10.0 mi SSE 4.6 mph - N/A   Clear
6:53 PM 33.1 °F 27.7 °F 12.9 °F 43% 30.30 in 10.0 mi SE 5.8 mph - N/A   Clear
7:53 PM 30.0 °F 23.2 °F 14.0 °F 51% 30.28 in 10.0 mi SSE 6.9 mph - N/A   Clear
8:53 PM 32.0 °F 25.6 °F 15.1 °F 50% 30.26 in 10.0 mi SSE 6.9 mph - N/A   Clear
9:53 PM 28.4 °F 22.2 °F 15.8 °F 59% 30.23 in 10.0 mi South 5.8 mph - N/A   Clear
10:53 PM 21.0 °F 13.4 °F 12.0 °F 68% 30.25 in 10.0 mi SSW 5.8 mph - N/A   Clear
11:53 PM 36.0 °F 29.0 °F 14.0 °F 41% 30.21 in 10.0 mi SSW 9.2 mph - N/A   Clear